Regional Weather Roundup
Issued by NWS

Home | Current Version | Previous Version | Text Only | Print | Product List | Glossary On
Versions: 1 2 3 4 5 6 7 8 9 10 11 12 13 14 15 16 17 18 19 20 21 22 23 24 25 26 27 28 29 30 31 32 33 34 35 36 37 38 39 40 41 42 43 44 45 46 47
000
ASUS43 KMPX 040010
RWRMN
WEATHER ROUNDUP FOR MINNESOTA
NATIONAL WEATHER SERVICE TWIN CITIES/CHANHASSEN MN
600 PM CST WED MAR 03 2021


NOTE: "FAIR" INDICATES FEW OR NO CLOUDS BELOW 12,000 FEET WITH NO
SIGNIFICANT WEATHER AND/OR OBSTRUCTIONS TO VISIBILITY. N/A MEANS
CURRENT SKY AND/OR WEATHER CONDITIONS ARE NOT AVAILABLE.

MNZ060>063-068>070-040100-
   Twin Cities Metro

CITY           SKY/WX    TMP DP  RH WIND       PRES   REMARKS
TWIN CITIES    MOCLDY    45  24  43 E7        30.11R
6HR MIN TEMP:  44; 6HR MAX TEMP:  50;

ST PAUL        CLOUDY    46  24  42 NE3       30.11R
CRYSTAL        PTCLDY    45  24  43 E3        30.10R
BLAINE         MOCLDY    45  28  53 VRB5      30.10R
LAKEVILLE      PTCLDY    41  28  60 CALM      30.11R
EDEN PRAIRIE   MOCLDY    46  24  42 E5        30.08R
6HR MIN TEMP:  42; 6HR MAX TEMP:  49;

SOUTH ST PAUL    N/A     45  26  46 SE3       30.11R
LAKE ELMO      FAIR      41  25  52 MISG      30.11R
$$
MNZ001>005-007-008-013>017-022>024-027-028-040100-
   Northwest Minnesota

CITY           SKY/WX    TMP DP  RH WIND       PRES   REMARKS
BEMIDJI        MOCLDY    34  21  59 E3        30.12R
HALLOCK        MOCLDY    37  27  65 CALM      30.11R
ROSEAU         PTCLDY    36  19  51 E7        30.13R
WARROAD        MOCLDY    27  19  74 NE5       30.14R WCI  21
THIEF RVR FALL CLOUDY    34  25  69 E6        30.11S WCI  29
CROOKSTON      PTCLDY    36  25  64 E7        30.10S
FOSSTON        CLOUDY    34  23  64 E5        30.11R WCI  30
DETROIT LAKES  CLEAR     37  25  60 E6        30.08R
MOORHEAD       CLEAR     43  27  52 E5        30.09R
PARK RAPIDS    CLOUDY    39  21  48 E3        30.09R
MAHNOMEN       FAIR      38  24  55 E5        30.09R
$$
MNZ006-009>011-018-025>026-040100-
   North Central Minnesota

CITY           SKY/WX    TMP DP  RH WIND       PRES   REMARKS
BAUDETTE       CLEAR     31  17  56 E3        30.12R
FLAG ISLAND    CLEAR     27  14  59 CALM      30.15R
INTL FALLS     CLEAR     32  16  51 CALM      30.13R
6HR MIN TEMP:  30; 6HR MAX TEMP:  35;

WASKISH        CLOUDY    30  19  64 CALM      30.12S
BIG FORK       CLOUDY    34  16  47 CALM      30.17R
LONGVILLE        N/A     37  18  44 CALM      30.10R
GRAND RAPIDS   CLOUDY    34  22  61 CALM      30.14R
CRANE LAKE     CLEAR     28  19  69 CALM      30.17R
ORR            CLEAR     32  16  51 CALM      30.12R
COOK           CLEAR     36  14  41 CALM      30.13R
WALKER         CLOUDY    34  21  59 CALM      30.12R
$$
MNZ012-019>021-037-040100-
   Northeast Minnesota

CITY           SKY/WX    TMP DP  RH WIND       PRES   REMARKS
DULUTH         PTCLDY    33  24  69 SE8       30.11R WCI  26
6HR MIN TEMP:  33; 6HR MAX TEMP:  42;

ELY            CLEAR     34  12  40 CALM      30.13R
HIBBING        CLEAR     30  16  56 CALM      30.11R
EVELETH        CLEAR     35  19  52 CALM      30.13R
DULUTH HARBOR  CLEAR     34  30  86 NE10      30.16R WCI  26
TWO HARBORS    CLEAR     30  25  80 E3        30.14R
SILVER BAY     CLOUDY    28  23  80 NE6       30.15R WCI  22
GRAND MARAIS     N/A     29  22  75 CALM      30.20R
G MARAIS ARPRT CLOUDY    23  19  86 S3        30.12R
$$
MNZ029>031-032-039>041-046>048-054>057-064-040100-
   West Central Minnesota

CITY           SKY/WX    TMP DP  RH WIND       PRES   REMARKS
FERGUS FALLS   CLEAR     41  28  60 SE6       30.04S
WHEATON        CLEAR     41  36  81 E8        30.08S
MORRIS         CLEAR     41  34  75 E6        30.08R
ALEXANDRIA     CLEAR     40  27  59 E7        30.08R
ELBOW LAKE     FAIR      39  30  71 SE6       30.08R
WADENA         CLEAR     39  23  52 E5        30.08S
GLENWOOD       PTCLDY    39  32  75 E5        30.08R
APPLETON       MOCLDY    45  36  70 E7        30.06R
BENSON         MOCLDY    45  32  61 SE3       30.09R
ORTONVILLE     CLEAR     45  37  76 E6        30.05R
MADISON        PTCLDY    46  39  76 SE8       30.07R
WILLMAR        FAIR      43  30  61 E6        30.11R
$$
MNZ033>034-036-042>043-049>051-058-059-040100-
   Central Minnesota

CITY           SKY/WX    TMP DP  RH WIND       PRES   REMARKS
ST CLOUD       MOCLDY    39  24  55 NE3       30.10R
6HR MIN TEMP:  39; 6HR MAX TEMP:  44;

SAUK CENTRE    MOCLDY    40  29  65 E5        30.09R
PAYNESVILLE    CLOUDY    41  32  70 E5        30.09S
AITKIN         PTCLDY    37  21  52 CALM      30.11R
PINE RIVER     CLOUDY    39  25  56 CALM      30.14R
BRAINERD       PTCLDY    41  19  41 E3        30.11R
STAPLES        PTCLDY    41  21  45 CALM      30.09S
LONG PRAIRIE   FAIR      37  27  65 E5        30.09R
LITTLE FALLS   CLEAR     37  23  56 CALM      30.11R
CAMP RIPLEY    FAIR      40  25  55 CALM      30.11R
LITCHFIELD     CLEAR     41  32  70 E6        30.10R
BUFFALO        MOCLDY    41  26  54 MISG      30.11S
MAPLE LAKE       N/A     41  29  64 E5        30.11R
HUTCHINSON     PTCLDY    42  33  72 E5        30.10R
$$
MNZ037-044-045-052-053-040100-
   East Central Minnesota

CITY           SKY/WX    TMP DP  RH WIND       PRES   REMARKS
PRINCETON      CLEAR     41  25  52 CALM      30.12R
MORA           PTCLDY    37  27  65 CALM      30.14R
CAMBRIDGE      PTCLDY    43  27  52 CALM      30.12
RUSH CITY      CLOUDY    39  25  56 CALM      30.12R
MOOSE LAKE     CLOUDY    39  19  45 NE3       30.11R
HINCKLEY       CLOUDY    37  28  70 CALM      30.12R
CLOQUET        MOCLDY    36  18  48 N3        30.11R
MCGREGOR       CLOUDY    37  25  60 CALM      30.12R
$$
MNZ071>073-080-081-089-090-097-098-040100-
   Southwest Minnesota

CITY           SKY/WX    TMP DP  RH WIND       PRES   REMARKS
MONTEVIDEO     CLEAR     43  36  75 SE7       30.07R
GRANITE FALLS  CLEAR     46  38  76 E5        30.08R
CANBY          CLEAR     46  40  80 SE7       30.06R
MARSHALL       CLEAR     46  40  79 SE10      30.05S
REDWOOD FALLS  CLEAR     45  35  68 SE6       30.07R
OLIVIA         CLEAR     43  37  81 SE5       30.08R
PIPESTONE      CLEAR     52  45  76 SE3       30.03R
WINDOM         CLEAR     46  39  76 E6        30.06R
WORTHINGTON    CLEAR     46  42  86 SE7       30.06R
JACKSON        CLEAR     43  37  81 E7        30.07R
TRACY          CLEAR     47  38  72 SE6       30.05S
SLAYTON        CLEAR     47  41  80 E7        30.05R
$$
MNZ065>067-074>077-082>085-091>093-040100-
   South Central Minnesota

CITY           SKY/WX    TMP DP  RH WIND       PRES   REMARKS
MANKATO        CLEAR     42  35  76 SE7       30.10S
NEW ULM        CLEAR     45  30  57 E7        30.09R
ST JAMES       CLEAR     43  37  81 E8        30.08S
FAIRMONT       CLEAR     43  38  82 E6        30.09R
GLENCOE        PTCLDY    43  32  65 CALM      30.09R
FARIBAULT      MOCLDY    43  30  61 SE5       30.10S
OWATONNA       CLEAR     39  28  65 E5        30.10S
WASECA         CLEAR     37  32  81 SE6       30.12R
ALBERT LEA     CLEAR     39  34  81 NE5       30.10R
$$
MNZ078>079-086>088-094>096-040100-
   Southeast Minnesota

CITY           SKY/WX    TMP DP  RH WIND       PRES   REMARKS
ROCHESTER      CLEAR     40  31  70 NW6       30.10S
6HR MIN TEMP:  38; 6HR MAX TEMP:  44;

RED WING       CLOUDY    43  27  52 CALM      30.11R
STANTON        PTCLDY    38  32  78 CALM      30.10S
DODGE CENTER   CLEAR     39  30  70 CALM      30.10S
WINONA         PTCLDY    45  30  57 CALM      30.12R
AUSTIN         CLEAR     43  30  61 CALM      30.10R
PRESTON        CLEAR     38  31  76 W3        30.10R
$$
ABBREVIATIONS USED IN REMARKS
   TC - TEMPERATURES IN CELSIUS
  WCI - WIND CHILL INDEX
   HX - HEAT INDEX
  VSB - VISIBILITY
$$



USA.gov is the U.S. government's official web portal to all federal, state and local government web resources and services.